[[{"header":{"parameterUnit":"m.s-1","parameterCategory":1,"la1":30.2991,"la2":30.254,"lo1":-89.0895,"lo2":-89.0444,"dy":0.0017,"dx":0.0017,"nx":28,"ny":28,"refTime":"2025-12-24T03:00:00:Z","depth":0,"parameterNumber":2,"parameterNumberName":"U-component_of_WINDS"},"data":[0,0,0,0,0,0,0,0,0,0,0,0,0,0,0,0,0,0,0,0,0,0,0,0,0,0,0,0,0,0,0,0,0,0,0,0,0,0,0,0,0,0,0,0,0,0,0,0,0,0,0,0,0,0,0,0,0,0,-0.193,-0.1929,0,-0.1822,-0.182,-0.1819,-0.1741,-0.174,-0.1739,-0.1739,-0.1626,-0.1623,-0.1621,0,0,0,0,0,0,0,0,0,0,0,0,0,-0.2067,-0.2065,-0.193,-0.1929,-0.1927,-0.1822,-0.182,-0.1819,-0.1741,-0.174,-0.1739,-0.1738,-0.1627,-0.1624,-0.1621,0,0,0,0,0,0,0,0,0,0,0,0,0,-0.1988,-0.2064,-0.193,-0.1876,-0.187,-0.1822,-0.182,-0.1818,-0.1741,-0.174,-0.1739,-0.1738,-0.1627,-0.1624,-0.162,-0.1618,0,0,-0.1609,-0.1608,0,0,0,0,0,0,0,0,-0.1993,-0.1983,-0.1885,-0.1879,-0.1873,-0.1794,-0.1827,-0.1751,-0.1741,-0.179,-0.1739,-0.1737,-0.1682,-0.1674,-0.1656,-0.1613,-0.1608,-0.1609,-0.1607,-0.1605,-0.1604,0,0,0,0,0,0,0,-0.1998,-0.1987,-0.1887,-0.1884,-0.1876,-0.1856,-0.1844,-0.1812,-0.1743,-0.1785,-0.1779,-0.1768,-0.1679,-0.166,-0.1653,-0.1606,-0.1609,-0.1606,-0.1604,-0.1602,-0.1555,-0.1555,0,0,0,0,0,0,-0.2012,-0.1992,-0.189,-0.1884,-0.1931,-0.1854,-0.184,-0.182,-0.1743,-0.173,-0.1769,-0.1765,-0.1666,-0.1657,-0.1648,-0.164,-0.1605,-0.1602,-0.16,-0.1554,-0.1555,-0.1556,0,0,0,0,0,0,-0.2016,-0.2004,-0.1895,-0.1936,-0.1921,-0.1853,-0.1831,-0.1818,-0.1799,-0.173,-0.1717,-0.1762,-0.1665,-0.1653,-0.1626,-0.1635,-0.16,-0.1597,-0.1553,-0.1554,-0.1555,-0.1623,0,0,0,0,0,0,-0.202,-0.2006,-0.2005,-0.1937,-0.1919,-0.1875,-0.1831,-0.1817,-0.1793,-0.1787,-0.1721,-0.1709,-0.1663,-0.1632,-0.1623,-0.1629,-0.1594,-0.1552,-0.1553,-0.1555,-0.162,-0.1627,-0.1632,0,0,0,0,0,-0.2025,-0.2028,-0.2005,-0.1993,-0.1916,-0.1876,-0.1865,-0.1814,-0.1794,-0.1792,-0.1748,-0.1711,-0.1636,-0.163,-0.1619,-0.1624,-0.1551,-0.1553,-0.1555,-0.1617,-0.1625,-0.1632,0,0,0,0,0,0,-0.2098,-0.2018,-0.1992,-0.1973,-0.1932,-0.1863,-0.1858,-0.1824,-0.1787,-0.1783,-0.172,-0.1705,-0.1684,-0.1651,-0.1646,-0.1617,-0.1588,-0.1588,-0.164,-0.1647,-0.1653,-0.1661,-0.1591,0,0,0,0,0,-0.2112,-0.2086,-0.2017,-0.2007,-0.1988,-0.1927,-0.1908,-0.1871,-0.1826,-0.1808,-0.1762,-0.1719,-0.1685,-0.1664,-0.163,-0.1615,-0.1599,-0.1613,-0.162,-0.1625,-0.1626,-0.1615,-0.162,-0.1562,-0.1562,-0.1562,0,0,-0.214,-0.2093,-0.2081,-0.2021,-0.1985,-0.1959,-0.1913,-0.1888,-0.1868,-0.1804,-0.1775,-0.174,-0.1687,-0.1666,-0.1655,-0.1638,-0.1638,-0.1628,-0.1633,-0.163,-0.1617,-0.1623,-0.1628,-0.1564,-0.1563,-0.1563,0,0,-0.2177,-0.214,-0.2127,-0.2092,-0.2038,-0.1998,-0.1995,-0.1931,-0.1905,-0.1876,-0.1827,-0.1802,-0.1746,-0.171,-0.1685,-0.171,-0.1674,-0.17,-0.1733,-0.1723,-0.1728,-0.1731,-0.1739,-0.1743,-0.1701,-0.1701,-0.1701,0,-0.2219,-0.2179,-0.2125,-0.2102,-0.2077,-0.2019,-0.2005,-0.1973,-0.1911,-0.1894,-0.1877,-0.1805,-0.1766,-0.1735,-0.1742,-0.1723,-0.1717,-0.1707,-0.1732,-0.1735,-0.1737,-0.1744,-0.1748,-0.1705,-0.1704,-0.1704,-0.1704,0,-0.2232,-0.2205,-0.2201,-0.2143,-0.2117,-0.2099,-0.2042,-0.2022,-0.1988,-0.1949,-0.192,-0.187,-0.1825,-0.1815,-0.1781,-0.1779,-0.1771,-0.1744,-0.1713,-0.1747,-0.1753,-0.1755,-0.171,-0.1708,-0.1707,-0.1707,0,0,-0.2312,-0.2225,-0.2224,-0.2197,-0.2133,-0.2111,-0.209,-0.2046,-0.203,-0.1989,-0.1969,-0.1923,-0.1897,-0.1869,-0.1831,-0.1822,-0.1844,-0.1795,-0.1793,-0.1805,-0.1838,-0.1858,-0.1862,-0.182,-0.182,-0.1821,-0.1842,0,-0.234,-0.23,-0.225,-0.2227,-0.2201,-0.2145,-0.2127,-0.2086,-0.2049,-0.2021,-0.1979,-0.1948,-0.1917,-0.1899,-0.1888,-0.1844,-0.1849,-0.1842,-0.18,-0.1799,-0.1814,-0.1865,-0.1887,-0.1909,-0.1844,-0.1844,-0.1844,0,-0.2366,-0.2329,-0.2303,-0.2242,-0.2229,-0.2213,-0.2168,-0.2143,-0.2095,-0.2068,-0.2037,-0.1996,-0.197,-0.1944,-0.1907,-0.1903,-0.1883,-0.1859,-0.1858,-0.1852,-0.1824,-0.1859,-0.1915,-0.1919,-0.1847,-0.1847,-0.1847,0,-0.2426,-0.2369,-0.2346,-0.2325,-0.2253,-0.2243,-0.2212,-0.2163,-0.214,-0.2101,-0.2085,-0.2043,-0.202,-0.1988,-0.1937,-0.1923,-0.1906,-0.1875,-0.1882,-0.1884,-0.1881,-0.1881,-0.1933,-0.1869,-0.1869,-0.1869,-0.1869,0,-0.2462,-0.2448,-0.2372,-0.2358,-0.2341,-0.2284,-0.2268,-0.2232,-0.2189,-0.2167,-0.2116,-0.2096,-0.203,-0.2001,-0.1961,-0.1936,-0.1926,-0.1904,-0.1893,-0.1908,-0.1911,-0.1894,-0.189,-0.187,-0.187,-0.187,-0.187,0,-0.2525,-0.2474,-0.2445,-0.238,-0.2363,-0.2353,-0.2297,-0.228,-0.2241,-0.2213,-0.2203,-0.2141,-0.2104,-0.2051,-0.1998,-0.1971,-0.1953,-0.1936,-0.1969,-0.1963,-0.1973,-0.1972,-0.2015,-0.2017,-0.1953,-0.1954,-0.1954,0,-0.2551,-0.2539,-0.2473,-0.2454,-0.2426,-0.2396,-0.2372,-0.2316,-0.2293,-0.2237,-0.2228,-0.2188,-0.2153,-0.2098,-0.2047,-0.2007,-0.1988,-0.2006,-0.1981,-0.1997,-0.1987,-0.1988,-0.1986,-0.2011,-0.2012,-0.2013,-0.2014,0,-0.2602,-0.2577,-0.2545,-0.2504,-0.2477,-0.2441,-0.2403,-0.2391,-0.2326,-0.2303,-0.2266,-0.2239,-0.2186,-0.2146,-0.2099,-0.2066,-0.2029,-0.2022,-0.2021,-0.2036,-0.2055,-0.2044,-0.1984,-0.2021,-0.202,-0.202,-0.2019,-0.2019,-0.2646,-0.2633,-0.2584,-0.255,-0.2516,-0.2482,-0.2463,-0.2421,-0.239,-0.2343,-0.2311,-0.2276,-0.2227,-0.216,-0.2129,-0.21,-0.2084,-0.2084,-0.2083,-0.2084,-0.2089,-0.2061,-0.2091,-0.2091,-0.2091,-0.2091,-0.209,0,-0.2694,-0.266,-0.2629,-0.2578,-0.2551,-0.2519,-0.2475,-0.2454,-0.2424,-0.2382,-0.2349,-0.2307,-0.2268,-0.2215,-0.2173,-0.216,-0.2142,-0.215,-0.215,-0.2143,-0.2106,-0.211,-0.2166,-0.2166,-0.2166,-0.2166,-0.2166,-0.2166,-0.2715,-0.2691,-0.2661,-0.2619,-0.2584,-0.255,-0.2528,-0.2496,-0.2462,-0.2417,-0.2385,-0.2351,-0.2304,-0.2258,-0.2222,-0.2207,-0.2193,-0.2207,-0.2187,-0.2153,-0.2146,-0.214,-0.2143,-0.2205,-0.2205,-0.2227,-0.2227,-0.2228]},{"header":{"parameterUnit":"m.s-1","parameterCategory":1,"la1":30.2991,"la2":30.254,"lo1":-89.0895,"lo2":-89.0444,"dy":0.0017,"dx":0.0017,"nx":28,"ny":28,"refTime":"2025-12-24T03:00:00:Z","depth":0,"parameterNumber":3,"parameterNumberName":"V-component_of_WINDS"},"data":[0,0,0,0,0,0,0,0,0,0,0,0,0,0,0,0,0,0,0,0,0,0,0,0,0,0,0,0,0,0,0,0,0,0,0,0,0,0,0,0,0,0,0,0,0,0,0,0,0,0,0,0,0,0,0,0,0,0,-0.3886,-0.3886,0,-0.3916,-0.3916,-0.3916,-0.3891,-0.389,-0.3889,-0.3888,-0.392,-0.3922,-0.3924,0,0,0,0,0,0,0,0,0,0,0,0,0,-0.3807,-0.3808,-0.3886,-0.3886,-0.3886,-0.3915,-0.3916,-0.3916,-0.3892,-0.389,-0.3889,-0.3888,-0.3919,-0.3922,-0.3924,0,0,0,0,0,0,0,0,0,0,0,0,0,-0.3839,-0.3809,-0.3886,-0.3878,-0.3877,-0.3915,-0.3916,-0.3916,-0.3892,-0.389,-0.3889,-0.3887,-0.3919,-0.3921,-0.3924,-0.3972,0,0,-0.3932,-0.3934,0,0,0,0,0,0,0,0,-0.3837,-0.3842,-0.3878,-0.3878,-0.3878,-0.3898,-0.39,-0.3935,-0.3892,-0.3886,-0.3888,-0.3887,-0.3914,-0.3917,-0.3926,-0.3974,-0.3975,-0.3933,-0.3934,-0.3935,-0.3936,0,0,0,0,0,0,0,-0.3835,-0.3841,-0.3897,-0.3879,-0.3879,-0.3872,-0.3875,-0.3906,-0.3909,-0.3887,-0.3885,-0.3889,-0.3914,-0.3924,-0.3927,-0.3975,-0.3933,-0.3935,-0.3937,-0.3938,-0.4063,-0.4064,0,0,0,0,0,0,-0.3834,-0.3839,-0.3896,-0.3898,-0.3853,-0.3875,-0.3878,-0.3893,-0.3908,-0.3909,-0.389,-0.3888,-0.392,-0.3924,-0.3928,-0.3984,-0.3935,-0.3938,-0.3939,-0.4061,-0.4063,-0.4065,0,0,0,0,0,0,-0.3832,-0.3839,-0.3895,-0.3868,-0.3875,-0.3878,-0.3895,-0.3895,-0.3905,-0.3911,-0.3911,-0.39,-0.3919,-0.3924,-0.3961,-0.3985,-0.3939,-0.3942,-0.4059,-0.4061,-0.4064,-0.4098,0,0,0,0,0,0,-0.383,-0.3839,-0.3857,-0.3869,-0.3876,-0.3928,-0.3897,-0.3896,-0.3909,-0.3906,-0.392,-0.3921,-0.3918,-0.3957,-0.3964,-0.3988,-0.3944,-0.4057,-0.406,-0.4063,-0.4095,-0.4102,-0.4107,0,0,0,0,0,-0.3827,-0.3866,-0.3858,-0.3865,-0.39,-0.393,-0.3934,-0.3929,-0.3911,-0.393,-0.3933,-0.392,-0.3981,-0.3961,-0.3968,-0.3994,-0.4055,-0.4059,-0.4063,-0.4092,-0.41,-0.4107,0,0,0,0,0,0,-0.3858,-0.3868,-0.3859,-0.3903,-0.3915,-0.3925,-0.3949,-0.3938,-0.3957,-0.3953,-0.3947,-0.395,-0.3989,-0.3995,-0.3972,-0.404,-0.4015,-0.4021,-0.4035,-0.4043,-0.4049,-0.4047,-0.3946,0,0,0,0,0,-0.387,-0.3893,-0.39,-0.3938,-0.3945,-0.3946,-0.3959,-0.3954,-0.3967,-0.3972,-0.3979,-0.3992,-0.4014,-0.4029,-0.405,-0.4096,-0.4098,-0.4117,-0.4123,-0.4128,-0.4133,-0.4157,-0.4165,-0.4077,-0.4077,-0.4077,0,0,-0.3894,-0.3903,-0.3918,-0.3945,-0.3954,-0.3978,-0.3951,-0.3978,-0.3996,-0.3977,-0.4012,-0.4017,-0.4031,-0.4073,-0.4091,-0.4079,-0.4157,-0.4133,-0.4137,-0.4139,-0.4161,-0.417,-0.4177,-0.408,-0.4079,-0.4079,0,0,-0.3952,-0.3961,-0.3993,-0.4002,-0.4016,-0.4016,-0.4024,-0.4035,-0.4038,-0.4073,-0.4059,-0.408,-0.4118,-0.4128,-0.4139,-0.4199,-0.4187,-0.4206,-0.4238,-0.4261,-0.4268,-0.4274,-0.4295,-0.4303,-0.421,-0.421,-0.421,0,-0.3981,-0.4017,-0.4011,-0.4038,-0.405,-0.4033,-0.4065,-0.4075,-0.4096,-0.4104,-0.409,-0.4136,-0.4145,-0.4188,-0.4203,-0.4212,-0.422,-0.4204,-0.4268,-0.4274,-0.4279,-0.4299,-0.4307,-0.4213,-0.4212,-0.4212,-0.4212,0,-0.4052,-0.4077,-0.4101,-0.412,-0.4135,-0.4165,-0.4162,-0.4178,-0.4172,-0.4173,-0.4208,-0.4218,-0.4239,-0.4249,-0.4244,-0.4292,-0.4283,-0.4269,-0.4243,-0.429,-0.4308,-0.4316,-0.4216,-0.4215,-0.4214,-0.4214,0,0,-0.413,-0.4144,-0.4153,-0.4161,-0.4175,-0.4194,-0.4223,-0.4244,-0.4257,-0.4271,-0.4295,-0.4327,-0.4313,-0.4325,-0.432,-0.4341,-0.4387,-0.4323,-0.4323,-0.4334,-0.4439,-0.445,-0.4459,-0.4379,-0.438,-0.4381,-0.4438,0,-0.4188,-0.4238,-0.4232,-0.428,-0.4302,-0.4286,-0.4311,-0.4322,-0.4323,-0.4343,-0.4345,-0.4367,-0.4347,-0.4354,-0.4374,-0.4377,-0.4407,-0.4373,-0.4401,-0.4402,-0.4398,-0.4469,-0.4481,-0.4534,-0.4445,-0.4446,-0.4447,0,-0.4262,-0.4278,-0.4328,-0.4337,-0.4346,-0.4369,-0.4386,-0.4405,-0.4417,-0.4417,-0.4429,-0.4421,-0.4449,-0.4423,-0.4462,-0.4438,-0.4449,-0.4452,-0.4454,-0.4457,-0.4427,-0.4473,-0.4551,-0.4558,-0.4459,-0.4458,-0.4457,0,-0.4314,-0.4348,-0.4382,-0.4389,-0.4401,-0.4417,-0.4422,-0.4432,-0.4445,-0.4461,-0.4468,-0.4487,-0.4498,-0.4513,-0.4509,-0.449,-0.4549,-0.4522,-0.4549,-0.455,-0.4563,-0.4562,-0.4643,-0.457,-0.457,-0.457,-0.457,0,-0.4379,-0.441,-0.4405,-0.4426,-0.4459,-0.4452,-0.4486,-0.449,-0.4499,-0.452,-0.4507,-0.4527,-0.4521,-0.454,-0.4538,-0.457,-0.4575,-0.4576,-0.4575,-0.4577,-0.4577,-0.4584,-0.458,-0.4572,-0.4571,-0.4571,-0.4571,0,-0.4443,-0.4441,-0.4476,-0.4484,-0.4486,-0.4511,-0.4517,-0.4537,-0.4537,-0.4564,-0.4569,-0.457,-0.4592,-0.459,-0.4615,-0.4614,-0.4653,-0.4648,-0.4649,-0.4648,-0.4675,-0.4673,-0.4764,-0.4775,-0.4695,-0.4696,-0.4696,0,-0.4484,-0.4508,-0.4517,-0.453,-0.4537,-0.4558,-0.457,-0.4564,-0.4577,-0.4591,-0.4609,-0.463,-0.4646,-0.4683,-0.4685,-0.4704,-0.4699,-0.473,-0.4702,-0.4703,-0.4699,-0.4698,-0.47,-0.4735,-0.4736,-0.4737,-0.4738,0,-0.4558,-0.4556,-0.4574,-0.4591,-0.4606,-0.462,-0.4632,-0.4644,-0.4638,-0.4654,-0.4676,-0.4689,-0.4714,-0.4735,-0.4753,-0.4758,-0.4747,-0.4746,-0.4753,-0.4756,-0.4756,-0.4756,-0.4664,-0.4744,-0.4744,-0.4743,-0.4743,-0.4743,-0.4612,-0.4632,-0.4641,-0.4661,-0.467,-0.4681,-0.47,-0.4701,-0.472,-0.474,-0.4735,-0.476,-0.477,-0.4792,-0.48,-0.4819,-0.4808,-0.4819,-0.4821,-0.4824,-0.4827,-0.4752,-0.4822,-0.4822,-0.4822,-0.4822,-0.4822,0,-0.4685,-0.469,-0.4709,-0.4726,-0.4742,-0.4729,-0.4742,-0.4756,-0.4778,-0.4788,-0.4804,-0.4829,-0.4849,-0.4853,-0.4872,-0.4886,-0.4882,-0.4892,-0.4891,-0.4892,-0.4836,-0.4828,-0.4895,-0.4895,-0.4895,-0.4895,-0.4895,-0.4895,-0.4725,-0.4757,-0.4756,-0.4791,-0.4796,-0.482,-0.4828,-0.4839,-0.4846,-0.4875,-0.4891,-0.4893,-0.4901,-0.492,-0.4937,-0.4938,-0.4945,-0.4957,-0.4956,-0.4903,-0.4896,-0.4889,-0.4881,-0.4959,-0.4959,-0.501,-0.501,-0.5011]}]]